Regional Weather Roundup
Issued by NWS

Home | Current Version | Previous Version | Graphics & Text | Print | Product List | Glossary On
Versions: 1 2 3 4 5 6 7 8 9 10 11 12 13 14 15 16 17 18 19 20 21 22 23 24 25 26 27 28 29 30 31 32 33 34 35 36 37 38 39 40 41 42 43 44 45 46 47 48 49 50
000
ASUS43 KDMX 271301
RWRIA

WEATHER ROUNDUP FOR IOWA
NATIONAL WEATHER SERVICE DES MOINES IA
800 AM CDT SAT MAY 27 2017

NOTE: "FAIR" INDICATES FEW OR NO CLOUDS BELOW 12,000 FEET WITH NO
SIGNIFICANT WEATHER AND/OR OBSTRUCTIONS TO VISIBILITY.

* - THESE STATIONS ARE NOT NWS STATIONS...THUS NOT UNDER NWS
QUALITY CONTROL.  THEY ALSO DO NOT REPORT WEATHER SUCH
AS PRECIPITATION OR FOG.

IAZ001>003-012>014-020>022-031>034-043>046-271400-
   NORTHWEST IOWA

CITY           SKY/WX    TMP DP  RH WIND       PRES   REMARKS
CARROLL *      CLOUDY    63  52  67 NE3       29.89F
CHEROKEE *     CLOUDY    54  51  90 CALM      29.92R
DENISON *      CLOUDY    59  48  67 E3        29.91S
LE MARS *      CLOUDY    57  50  77 CALM      29.93R
ORANGE CITY *  CLOUDY    61  46  59 CALM      29.92S
SHELDON *      CLOUDY    59  48  67 CALM      29.91S
SIOUX CITY     CLOUDY    57  52  83 NW9       29.92R
SPENCER        CLOUDY    58  51  78 CALM      29.91S
STORM LAKE *   CLOUDY    59  46  63 NE7       29.92R
$$

IAZ055>058-069>071-079>083-090>094-271400-
   SOUTHWEST IOWA

CITY           SKY/WX    TMP DP  RH WIND       PRES   REMARKS
ATLANTIC *     CLOUDY    63  52  67 NE6       29.88S
AUDUBON *      MOSUNNY   64  54  68 E5        29.90S
CLARINDA *     CLOUDY    64  52  63 CALM      29.90R
COUNCIL BLFS * CLOUDY    63  48  59 NE7       29.87F
CRESTON *      CLOUDY    61  59  94 NE9       29.90R
HARLAN  *      CLOUDY    63  50  63 N6        29.91F
LAMONI         CLOUDY    64  62  93 E3        29.87S
RED OAK *      CLOUDY    63  52  67 NE7       29.87S
SHENANDOAH *   CLOUDY    64  50  59 E5        29.87S
$$

IAZ047>049-059>061-072>074-084-271400-
   CENTRAL IOWA

CITY           SKY/WX    TMP DP  RH WIND       PRES   REMARKS
AMES           FOG       58  58 100 CALM      29.89S VSB<1/4
ANKENY *       CLOUDY    61  61 100 CALM      29.89F FOG
BOONE *        MOSUNNY   63  59  88 CALM      29.89S
CHARITON *     CLOUDY    61  61 100 E6        29.88S FOG
DES MOINES     CLOUDY    64  61  90 E5        29.87F FOG
GRINNELL*      FOG       57  57  97 E6        29.91S VSB<1/4
KNOXVILLE *    CLOUDY    63  61  94 E6        29.87F FOG
MARSHALLTOWN   FOG       57  57 100 SE3       29.90R VSB<1/4
NEWTON *       MOSUNNY   59  59 100 CALM      29.89S FOG
PELLA *        CLOUDY    63  61  94 CALM      29.90S FOG
PERRY *          N/A     61  53  74 CALM      29.89S
$$

IAZ004>006-015-016-023>025-035-036-271400-
   NORTH CENTRAL IOWA

CITY           SKY/WX    TMP DP  RH WIND       PRES   REMARKS
ALGONA *       MOSUNNY   61  50  67 NE5       29.92R
CLARION *      MOSUNNY   63  50  63 N6        29.90S
ESTHERVILLE    CLOUDY    60  50  69 N3        29.90R
FORT DODGE *   PTSUNNY   59  52  77 CALM      29.92R
MASON CITY     MOSUNNY   62  51  67 N6        29.92R
FOREST CITY *    N/A     63  46  55 CALM      29.91R
WEBSTER CITY * MOSUNNY   63  50  63 N3        29.88S
$$

IAZ007>011-017>019-026>030-037>042-050>054-066-271400-
   NORTHEAST IOWA

CITY           SKY/WX    TMP DP  RH WIND       PRES   REMARKS
CEDAR RAPIDS   FOG       56  56 100 SE3       29.90S VSB 1/8
CHARLES CITY * FOG       55  55 100 VRB5      29.91R VSB<1/4
CLINTON *      FOG       57  56  96 E5        29.92F VSB 1/2
DECORAH *      FOG       59  59 100 VRB5      29.89R VSB 1/2
DUBUQUE        SUNNY     58  56  93 S6        29.91R
MONTICELLO *   FOG       54  54 100 CALM      29.91S VSB<1/4
OELWEIN *      FOG       59  59 100 S5        29.91S VSB<1/4
WATERLOO       FOG       59  58  96 S5        29.89S VSB<1/4
$$

IAZ064-065-067-068-078-271400-
   EAST CENTRAL IOWA

CITY           SKY/WX    TMP DP  RH WIND       PRES   REMARKS
DAVENPORT      CLOUDY    57  56  96 E6        29.92S FOG
IOWA CITY      FOG       56  55  97 E3        29.92S VSB 1/4
MT. PLEASANT * FOG       57  57 100 NE5       29.90S VSB<1/4
MUSCATINE *    FOG       57  57 100 E6        29.91S VSB<1/4
QUAD CITIES    FOG       58  56  93 NE3       29.92R VSB 1/2
$$

IAZ062-063-075>077-085>089-095>099-271400-
   SOUTHEAST IOWA

CITY           SKY/WX    TMP DP  RH WIND       PRES   REMARKS
BURLINGTON     FOG       59  59 100 E7        29.90R VSB<1/4
FAIRFIELD *    FOG       59  59 100 E5        29.89R VSB<1/4
FORT MADISON * FOG       61  61 100 E7        29.91R VSB<1/4
KEOKUK *       FOG       59  59 100 E8        29.89R VSB<1/4
OSKALOOSA *    FOG       58  58  97 NE5       29.90S VSB 1/4
OTTUMWA        FOG       60  60 100 E5        29.89R VSB<1/4
WASHINGTON *   FOG       57  57 100 NE5       29.91S VSB<1/4
$$

ABBREVIATIONS USED IN REMARKS
   TC - TEMPERATURES IN CELSIUS
  WCI - WIND CHILL INDEX
   HX - HEAT INDEX
  VSB - VISIBILITY
$$




USA.gov is the U.S. government's official web portal to all federal, state and local government web resources and services.